,,PA_Meas_PMT16A,,PR_Meas_QMR101_102,,RH_Meas_QMH101,,SR_Meas_QMS101,,TA_Meas_QMH101,,GenWind,,GenWind,
time,status,PA,status,PR,status,RH,status,SR,status,TA,status,DirAvg,status,SpdAvg,
2014-10-30, 00:00:04,VALID,917.401,VALID,0,VALID,96.7716,VALID,0,VALID,20.639,VALID,2,VALID,0,
2014-10-30, 00:01:04,VALID,917.39,VALID,0,VALID,96.8021,VALID,0,VALID,20.6585,VALID,2,VALID,0,
2014-10-30, 00:02:04,VALID,917.386,VALID,0,VALID,96.8631,VALID,0,VALID,20.678,VALID,2,VALID,0,
2014-10-30, 00:03:04,VALID,917.354,VALID,0,VALID,96.886,VALID,0,VALID,20.6959,VALID,2,VALID,0,
2014-10-30, 00:04:04,VALID,917.332,VALID,0,VALID,96.9241,VALID,0,VALID,20.6975,VALID,2,VALID,0,
2014-10-30, 00:05:04,VALID,917.335,VALID,0,VALID,96.947,VALID,0,VALID,20.678,VALID,359,VALID,0,
2014-10-30, 00:06:04,VALID,917.304,VALID,0,VALID,96.9394,VALID,0,VALID,20.678,VALID,354,VALID,0,
2014-10-30, 00:07:04,VALID,917.307,VALID,0,VALID,96.9394,VALID,0,VALID,20.678,VALID,354,VALID,0,
2014-10-30, 00:08:04,VALID,917.271,VALID,0,VALID,96.9775,VALID,0,VALID,20.678,VALID,354,VALID,0,
2014-10-30, 00:09:04,VALID,917.283,VALID,0,VALID,96.9851,VALID,0,VALID,20.6975,VALID,354,VALID,0,
2014-10-30, 00:10:04,VALID,917.303,VALID,0,VALID,97.0156,VALID,0,VALID,20.6975,VALID,354,VALID,0,
2014-10-30, 00:11:04,VALID,917.308,VALID,0,VALID,97.0308,VALID,0,VALID,20.6975,VALID,354,VALID,0,
2014-10-30, 00:12:04,VALID,917.309,VALID,0,VALID,97.0385,VALID,0,VALID,20.6764,VALID,354,VALID,0,
2014-10-30, 00:13:04,VALID,917.278,VALID,0,VALID,97.0537,VALID,0,VALID,20.7365,VALID,354,VALID,0,
2014-10-30, 00:14:04,VALID,917.263,VALID,0,VALID,97.0613,VALID,0,VALID,20.7365,VALID,354,VALID,0,
2014-10-30, 00:15:04,VALID,917.298,VALID,0,VALID,97.0766,VALID,0,VALID,20.7365,VALID,354,VALID,0,
2014-10-30, 00:16:04,VALID,917.292,VALID,0,VALID,97.0918,VALID,0,VALID,20.756,VALID,354,VALID,0,
2014-10-30, 00:17:04,VALID,917.328,VALID,0,VALID,97.1071,VALID,0,VALID,20.7365,VALID,354,VALID,0,
2014-10-30, 00:18:04,VALID,917.312,VALID,0,VALID,97.0994,VALID,0,VALID,20.717,INVALID,360,VALID,0,
2014-10-30, 00:19:04,VALID,917.352,VALID,0,VALID,97.1147,VALID,0,VALID,20.756,VALID,354,VALID,0,
2014-10-30, 00:20:04,VALID,917.354,VALID,0,VALID,97.1299,VALID,0,VALID,20.7365,VALID,354,VALID,0,
2014-10-30, 00:21:05,VALID,917.346,VALID,0,VALID,97.1528,VALID,0,VALID,20.756,VALID,354,VALID,0,
2014-10-30, 00:22:05,VALID,917.352,VALID,0,VALID,97.1452,VALID,0,VALID,20.7755,VALID,354,VALID,0,
2014-10-30, 00:23:05,VALID,917.35,VALID,0,VALID,97.1681,VALID,0,VALID,20.756,VALID,354,VALID,0,
2014-10-30, 00:24:05,VALID,917.352,VALID,0,VALID,97.1528,VALID,0,VALID,20.756,VALID,354,VALID,0,
2014-10-30, 00:25:05,VALID,917.309,VALID,0,VALID,97.1833,VALID,0,VALID,20.7755,VALID,354,VALID,0,
2014-10-30, 00:26:05,VALID,917.31,VALID,0,VALID,97.1528,VALID,0,VALID,20.795,VALID,354,VALID,0,
2014-10-30, 00:27:05,VALID,917.353,VALID,0,VALID,97.1681,VALID,0,VALID,20.7755,VALID,354,VALID,0,
2014-10-30, 00:28:05,VALID,917.34,VALID,0,VALID,97.1757,VALID,0,VALID,20.7365,VALID,354,VALID,0,
2014-10-30, 00:29:05,VALID,917.362,VALID,0,VALID,97.1452,VALID,0,VALID,20.717,VALID,354,VALID,0,
2014-10-30, 00:30:05,VALID,917.354,VALID,0,VALID,97.1452,VALID,0,VALID,20.756,VALID,354,VALID,0,
2014-10-30, 00:31:05,VALID,917.333,VALID,0,VALID,97.1528,VALID,0,VALID,20.7365,VALID,354,VALID,0,
2014-10-30, 00:32:05,VALID,917.37,VALID,0,VALID,97.1681,VALID,0,VALID,20.756,VALID,354,VALID,0,
2014-10-30, 00:33:05,VALID,917.36,VALID,0,VALID,97.1604,VALID,0,VALID,20.756,VALID,354,VALID,0,
2014-10-30, 00:34:05,VALID,917.362,VALID,0,VALID,97.1757,VALID,0,VALID,20.7349,VALID,354,VALID,0,
2014-10-30, 00:35:05,VALID,917.392,VALID,0,VALID,97.1757,VALID,0,VALID,20.756,VALID,354,VALID,0,
2014-10-30, 00:36:05,VALID,917.384,VALID,0,VALID,97.1909,VALID,0,VALID,20.756,VALID,354,VALID,0,
2014-10-30, 00:37:05,VALID,917.403,VALID,0,VALID,97.2062,VALID,0,VALID,20.717,VALID,354,VALID,0,
2014-10-30, 00:38:05,VALID,917.389,VALID,0,VALID,97.1986,VALID,0,VALID,20.7365,VALID,354,VALID,0,
2014-10-30, 00:39:05,VALID,917.421,VALID,0,VALID,97.1833,VALID,0,VALID,20.6959,VALID,354,VALID,0,
2014-10-30, 00:40:05,VALID,917.388,VALID,0,VALID,97.2138,VALID,0,VALID,20.7365,VALID,354,VALID,0,
2014-10-30, 00:41:05,VALID,917.389,VALID,0,VALID,97.2214,VALID,0,VALID,20.756,VALID,354,VALID,0,
2014-10-30, 00:42:05,VALID,917.323,VALID,0,VALID,97.229,VALID,0,VALID,20.7365,VALID,354,VALID,0,
2014-10-30, 00:43:05,VALID,917.285,VALID,0,VALID,97.229,VALID,0,VALID,20.6975,VALID,354,VALID,0,
2014-10-30, 00:44:05,VALID,917.298,VALID,0,VALID,97.2672,VALID,0,VALID,20.6975,VALID,354,VALID,0,
2014-10-30, 00:45:05,VALID,917.317,VALID,0,VALID,97.2519,VALID,0,VALID,20.6975,VALID,354,VALID,0,
2014-10-30, 00:46:05,VALID,917.332,VALID,0,VALID,97.2519,VALID,0,VALID,20.678,VALID,354,VALID,0,
2014-10-30, 00:47:05,VALID,917.336,VALID,0,VALID,97.2748,VALID,0,VALID,20.6764,VALID,354,VALID,0,
2014-10-30, 00:48:05,VALID,917.39,VALID,0,VALID,97.29,VALID,0.107441,VALID,20.6179,VALID,354,VALID,0,
2014-10-30, 00:49:05,VALID,917.435,VALID,0,VALID,97.2748,VALID,0,VALID,20.639,VALID,360,VALID,0,
2014-10-30, 00:50:05,VALID,917.457,VALID,0,VALID,97.29,VALID,0,VALID,20.639,VALID,3,VALID,0,
2014-10-30, 00:51:05,VALID,917.426,VALID,0,VALID,97.2748,VALID,0,VALID,20.639,VALID,9,VALID,0,
2014-10-30, 00:52:05,VALID,917.412,VALID,0,VALID,97.2977,VALID,0,VALID,20.6194,VALID,11,VALID,0,
2014-10-30, 00:53:05,VALID,917.402,VALID,0,VALID,97.3053,VALID,0,VALID,20.6194,VALID,15,VALID,0,
2014-10-30, 00:54:05,VALID,917.378,VALID,0,VALID,97.2977,VALID,0,VALID,20.5999,VALID,16,VALID,0,
2014-10-30, 00:55:05,VALID,917.366,VALID,0,VALID,97.3205,VALID,0,VALID,20.5804,VALID,16,VALID,0,
2014-10-30, 00:56:05,VALID,917.298,VALID,0,VALID,97.3129,VALID,0,VALID,20.5594,VALID,16,VALID,0,
2014-10-30, 00:57:05,VALID,917.329,VALID,0,VALID,97.3281,VALID,0,VALID,20.5804,VALID,3,VALID,0,
2014-10-30, 00:58:05,VALID,917.312,VALID,0,VALID,97.3281,VALID,0,VALID,20.5609,VALID,3,VALID,0,
2014-10-30, 00:59:05,VALID,917.274,VALID,0,VALID,97.3281,VALID,0,VALID,20.5609,VALID,3,VALID,0,
2014-10-30, 01:00:05,VALID,917.221,VALID,0,VALID,97.3205,VALID,0,VALID,20.5414,VALID,4,VALID,0,
2014-10-30, 01:01:05,VALID,917.226,VALID,0,VALID,97.3205,VALID,0,VALID,20.543,VALID,8,VALID,0,
2014-10-30, 01:02:05,VALID,917.196,VALID,0,VALID,97.3358,VALID,0,VALID,20.4813,VALID,355,VALID,0,
2014-10-30, 01:03:05,VALID,917.127,VALID,0,VALID,97.3358,VALID,0,VALID,20.5024,INVALID,360,VALID,0,
2014-10-30, 01:04:05,VALID,917.092,VALID,0,VALID,97.351,VALID,0,VALID,20.5024,VALID,360,VALID,0,
2014-10-30, 01:05:05,VALID,917.052,VALID,0,VALID,97.3434,VALID,0,VALID,20.4829,VALID,360,VALID,0,
2014-10-30, 01:06:05,VALID,917.023,VALID,0,VALID,97.3434,VALID,0,VALID,20.4634,VALID,356,VALID,0,
2014-10-30, 01:07:05,VALID,917.019,VALID,0,VALID,97.3815,VALID,0,VALID,20.4634,VALID,345,VALID,0,
2014-10-30, 01:08:05,VALID,916.976,VALID,0,VALID,97.3815,VALID,0,VALID,20.4423,VALID,336,VALID,0,
2014-10-30, 01:09:05,VALID,916.948,VALID,0,VALID,97.3891,VALID,0,VALID,20.4634,VALID,10,VALID,0,
2014-10-30, 01:10:05,VALID,916.909,VALID,0,VALID,97.3891,VALID,0,VALID,20.4618,VALID,353,VALID,0,
2014-10-30, 01:11:05,VALID,916.819,VALID,0,VALID,97.3815,VALID,0,VALID,20.4423,VALID,353,VALID,0,
2014-10-30, 01:12:05,VALID,916.809,VALID,0,VALID,97.3891,VALID,0,VALID,20.4634,VALID,11,VALID,0,
2014-10-30, 01:13:05,VALID,916.794,VALID,0,VALID,97.4044,VALID,0,VALID,20.4634,VALID,11,VALID,0,
2014-10-30, 01:14:05,VALID,916.735,VALID,0,VALID,97.4044,VALID,0.107441,VALID,20.4423,VALID,11,VALID,0,
2014-10-30, 01:15:05,VALID,916.753,VALID,0,VALID,97.412,VALID,0.107441,VALID,20.4439,VALID,11,VALID,0,
2014-10-30, 01:16:05,VALID,916.755,VALID,0,VALID,97.4273,VALID,0,VALID,20.4439,VALID,11,VALID,0,
2014-10-30, 01:17:05,VALID,916.773,VALID,0,VALID,97.4425,VALID,0,VALID,20.4244,INVALID,360,VALID,0,
2014-10-30, 01:18:05,VALID,916.755,VALID,0,VALID,97.4349,VALID,0,VALID,20.4049,VALID,355,VALID,0,
2014-10-30, 01:19:05,VALID,916.798,VALID,0,VALID,97.4425,VALID,0,VALID,20.3854,INVALID,360,VALID,0,
2014-10-30, 01:20:05,VALID,916.803,VALID,0,VALID,97.4425,VALID,0,VALID,20.3854,VALID,337,VALID,0,
2014-10-30, 01:21:05,VALID,916.831,VALID,0,VALID,97.4501,VALID,0,VALID,20.3854,VALID,1,VALID,0.0117188,
2014-10-30, 01:22:05,VALID,916.887,VALID,0,VALID,97.4577,VALID,0,VALID,20.4049,VALID,9,VALID,0,
2014-10-30, 01:23:05,VALID,916.956,VALID,0,VALID,97.4654,VALID,0,VALID,20.4049,VALID,21,VALID,0,
2014-10-30, 01:24:05,VALID,917.008,VALID,0,VALID,97.4806,VALID,0,VALID,20.4049,VALID,22,VALID,0,
2014-10-30, 01:25:05,VALID,917.053,VALID,0,VALID,97.4882,VALID,0.107441,VALID,20.4244,VALID,27,VALID,0,
2014-10-30, 01:26:05,VALID,917.076,VALID,0,VALID,97.4806,VALID,0,VALID,20.4439,VALID,17,VALID,0,
2014-10-30, 01:27:05,VALID,917.116,VALID,0,VALID,97.4959,VALID,0,VALID,20.4228,VALID,360,VALID,0,
2014-10-30, 01:28:05,VALID,917.124,VALID,0,VALID,97.4882,VALID,0,VALID,20.4634,VALID,323,VALID,0,
2014-10-30, 01:29:05,VALID,917.12,VALID,0,VALID,97.4882,VALID,0,VALID,20.4634,VALID,287,VALID,0,
2014-10-30, 01:30:05,VALID,917.125,VALID,0,VALID,97.5035,VALID,0,VALID,20.4634,VALID,261,VALID,0.0140625,
2014-10-30, 01:31:05,VALID,917.096,VALID,0,VALID,97.5187,VALID,0,VALID,20.4813,VALID,261,VALID,0,
2014-10-30, 01:32:05,VALID,917.073,VALID,0,VALID,97.4959,VALID,0,VALID,20.5414,VALID,261,VALID,0,
2014-10-30, 01:33:05,VALID,917.038,VALID,0,VALID,97.5111,VALID,0,VALID,20.5219,VALID,260,VALID,0,
2014-10-30, 01:34:05,VALID,917.044,VALID,0,VALID,97.5264,VALID,0,VALID,20.5024,VALID,253,VALID,0,
2014-10-30, 01:35:05,VALID,917.047,VALID,0,VALID,97.5264,VALID,0,VALID,20.4813,VALID,329,VALID,0,
2014-10-30, 01:36:05,VALID,916.997,VALID,0,VALID,97.534,VALID,0,VALID,20.5024,VALID,329,VALID,0,
2014-10-30, 01:37:05,VALID,917.013,VALID,0,VALID,97.5187,VALID,0,VALID,20.4829,VALID,1,VALID,0,
2014-10-30, 01:38:05,VALID,917.021,VALID,0,VALID,97.534,VALID,0,VALID,20.4829,VALID,359,VALID,0,
2014-10-30, 01:39:05,VALID,917.026,VALID,0,VALID,97.5416,VALID,0,VALID,20.4634,VALID,352,VALID,0,
2014-10-30, 01:40:05,VALID,917.017,VALID,0,VALID,97.534,VALID,0,VALID,20.4829,VALID,352,VALID,0,
2014-10-30, 01:41:05,VALID,917.032,VALID,0,VALID,97.5187,VALID,0,VALID,20.4829,VALID,352,VALID,0,
2014-10-30, 01:42:05,VALID,917.039,VALID,0,VALID,97.534,VALID,0,VALID,20.4829,VALID,352,VALID,0,
2014-10-30, 01:43:05,VALID,917.076,VALID,0,VALID,97.5264,VALID,0,VALID,20.504,VALID,352,VALID,0,
2014-10-30, 01:44:05,VALID,917.071,VALID,0,VALID,97.5111,VALID,0,VALID,20.5024,VALID,352,VALID,0,
2014-10-30, 01:45:05,VALID,917.051,VALID,0,VALID,97.5264,VALID,0,VALID,20.5024,VALID,352,VALID,0,
2014-10-30, 01:46:05,VALID,917.07,VALID,0,VALID,97.5264,VALID,0,VALID,20.5024,VALID,352,VALID,0,
2014-10-30, 01:47:05,VALID,917.065,VALID,0,VALID,97.5416,VALID,0,VALID,20.4829,VALID,352,VALID,0,
2014-10-30, 01:48:05,VALID,917.082,VALID,0,VALID,97.5111,VALID,0,VALID,20.4829,VALID,352,VALID,0,
2014-10-30, 01:49:05,VALID,917.081,VALID,0,VALID,97.534,VALID,0,VALID,20.4829,VALID,352,VALID,0,
2014-10-30, 01:50:05,VALID,917.086,VALID,0,VALID,97.5264,VALID,0,VALID,20.4829,VALID,352,VALID,0,
2014-10-30, 01:51:05,VALID,917.068,VALID,0,VALID,97.5187,VALID,0,VALID,20.5235,VALID,352,VALID,0,
2014-10-30, 01:52:05,VALID,917.051,VALID,0,VALID,97.5187,VALID,0.107441,VALID,20.5009,VALID,352,VALID,0,
2014-10-30, 01:53:05,VALID,917.079,VALID,0,VALID,97.5035,VALID,0.107441,VALID,20.5009,VALID,352,VALID,0,
2014-10-30, 01:54:05,VALID,917.066,VALID,0,VALID,97.5416,VALID,0.107441,VALID,20.4813,VALID,352,VALID,0,
2014-10-30, 01:55:05,VALID,917.078,VALID,0,VALID,97.5264,VALID,0.107441,VALID,20.4618,VALID,352,VALID,0,
2014-10-30, 01:56:05,VALID,917.072,VALID,0,VALID,97.5264,VALID,0.107441,VALID,20.4618,VALID,353,VALID,0,
2014-10-30, 01:57:05,VALID,917.048,VALID,0,VALID,97.5111,VALID,0.107441,VALID,20.4813,VALID,1,VALID,0,
2014-10-30, 01:58:05,VALID,917.069,VALID,0,VALID,97.5111,VALID,0.107441,VALID,20.5009,VALID,1,VALID,0,
2014-10-30, 01:59:05,VALID,917.043,VALID,0,VALID,97.5111,VALID,0,VALID,20.5009,VALID,1,VALID,0,
2014-10-30, 02:00:05,VALID,917.066,VALID,0,VALID,97.5111,VALID,0.107441,VALID,20.5009,VALID,1,VALID,0,
2014-10-30, 02:01:05,VALID,917.052,VALID,0,VALID,97.4959,VALID,0.107441,VALID,20.5399,VALID,1,VALID,0,
2014-10-30, 02:02:05,VALID,917.047,VALID,0,VALID,97.4959,VALID,0.107441,VALID,20.5204,VALID,1,VALID,0,
2014-10-30, 02:03:05,VALID,917.034,VALID,0,VALID,97.4882,VALID,0.107441,VALID,20.5204,VALID,360,VALID,0,
2014-10-30, 02:04:05,VALID,917.006,VALID,0,VALID,97.4882,VALID,0.107441,VALID,20.5009,VALID,360,VALID,0,
2014-10-30, 02:05:05,VALID,916.966,VALID,0,VALID,97.4882,VALID,0.107441,VALID,20.5009,VALID,360,VALID,0,
2014-10-30, 02:06:05,VALID,916.964,VALID,0,VALID,97.4959,VALID,0.107441,VALID,20.5009,VALID,360,VALID,0,
2014-10-30, 02:07:05,VALID,916.947,VALID,0,VALID,97.4882,VALID,0,VALID,20.5024,VALID,360,VALID,0,
2014-10-30, 02:08:05,VALID,916.934,VALID,0,VALID,97.4806,VALID,0,VALID,20.5024,VALID,360,VALID,0,
2014-10-30, 02:09:05,VALID,916.941,VALID,0,VALID,97.4654,VALID,0,VALID,20.4829,VALID,360,VALID,0,
2014-10-30, 02:10:05,VALID,916.887,VALID,0,VALID,97.4959,VALID,0,VALID,20.4829,VALID,360,VALID,0,
2014-10-30, 02:11:05,VALID,916.865,VALID,0,VALID,97.473,VALID,0,VALID,20.4829,VALID,360,VALID,0,
2014-10-30, 02:12:05,VALID,916.864,VALID,0,VALID,97.4654,VALID,0,VALID,20.5235,VALID,360,VALID,0,
2014-10-30, 02:13:05,VALID,916.829,VALID,0,VALID,97.4806,VALID,0,VALID,20.4829,VALID,360,VALID,0,
2014-10-30, 02:14:05,VALID,916.796,VALID,0,VALID,97.4882,VALID,0,VALID,20.4829,INVALID,360,VALID,0,
2014-10-30, 02:15:05,VALID,916.818,VALID,0,VALID,97.4959,VALID,0,VALID,20.4829,INVALID,360,VALID,0,
2014-10-30, 02:16:05,VALID,916.756,VALID,0,VALID,97.4882,VALID,0,VALID,20.4813,INVALID,360,VALID,0,
2014-10-30, 02:17:05,VALID,916.763,VALID,0,VALID,97.473,VALID,0,VALID,20.543,INVALID,360,VALID,0,
2014-10-30, 02:18:05,VALID,916.721,VALID,0,VALID,97.473,VALID,0,VALID,20.5024,VALID,343,VALID,0,
2014-10-30, 02:19:05,VALID,916.749,VALID,0,VALID,97.4577,VALID,0,VALID,20.5219,VALID,343,VALID,0,
2014-10-30, 02:20:05,VALID,916.741,VALID,0,VALID,97.4577,VALID,0,VALID,20.5219,VALID,343,VALID,0,
2014-10-30, 02:21:05,VALID,916.752,VALID,0,VALID,97.4806,VALID,0,VALID,20.5219,VALID,343,VALID,0,
2014-10-30, 02:22:05,VALID,916.751,VALID,0,VALID,97.4654,VALID,0,VALID,20.543,VALID,343,VALID,0,
2014-10-30, 02:23:05,VALID,916.761,VALID,0,VALID,97.4806,VALID,0,VALID,20.5219,INVALID,360,VALID,0,
2014-10-30, 02:24:05,VALID,916.752,VALID,0,VALID,97.4654,VALID,0,VALID,20.5219,VALID,343,VALID,0,
2014-10-30, 02:25:05,VALID,916.765,VALID,0,VALID,97.473,VALID,0,VALID,20.5024,VALID,343,VALID,0,
2014-10-30, 02:26:05,VALID,916.747,VALID,0,VALID,97.4501,VALID,0,VALID,20.4829,INVALID,360,VALID,0,
2014-10-30, 02:27:05,VALID,916.775,VALID,0,VALID,97.4806,VALID,0,VALID,20.5024,INVALID,360,VALID,0,
2014-10-30, 02:28:05,VALID,916.734,VALID,0,VALID,97.473,VALID,0,VALID,20.5024,VALID,344,VALID,0,
2014-10-30, 02:29:05,VALID,916.755,VALID,0,VALID,97.4577,VALID,0,VALID,20.4829,INVALID,360,VALID,0,
2014-10-30, 02:30:05,VALID,916.744,VALID,0,VALID,97.4501,VALID,0,VALID,20.4634,INVALID,360,VALID,0,
2014-10-30, 02:31:05,VALID,916.694,VALID,0,VALID,97.4501,VALID,0,VALID,20.4634,VALID,351,VALID,0,
2014-10-30, 02:32:05,VALID,916.72,VALID,0,VALID,97.4501,VALID,0,VALID,20.4439,VALID,351,VALID,0,
2014-10-30, 02:33:05,VALID,916.732,VALID,0,VALID,97.4654,VALID,0,VALID,20.4439,VALID,351,VALID,0,
2014-10-30, 02:34:05,VALID,916.718,VALID,0,VALID,97.4425,VALID,0,VALID,20.4049,VALID,351,VALID,0,
2014-10-30, 02:35:05,VALID,916.723,VALID,0,VALID,97.4349,VALID,0,VALID,20.4244,VALID,351,VALID,0,
2014-10-30, 02:36:05,VALID,916.713,VALID,0,VALID,97.473,VALID,0,VALID,20.4049,INVALID,360,VALID,0,
2014-10-30, 02:37:05,VALID,916.705,VALID,0,VALID,97.473,VALID,0,VALID,20.4049,INVALID,360,VALID,0,
2014-10-30, 02:38:05,VALID,916.677,VALID,0,VALID,97.4654,VALID,0,VALID,20.4049,VALID,351,VALID,0,
2014-10-30, 02:39:05,VALID,916.671,VALID,0,VALID,97.4501,VALID,0,VALID,20.4049,VALID,351,VALID,0,
2014-10-30, 02:40:05,VALID,916.671,VALID,0,VALID,97.4425,VALID,0,VALID,20.4244,VALID,351,VALID,0,
2014-10-30, 02:41:05,VALID,916.636,VALID,0,VALID,97.4654,VALID,0,VALID,20.4244,VALID,351,VALID,0,
2014-10-30, 02:42:05,VALID,916.666,VALID,0,VALID,97.4654,VALID,0,VALID,20.4244,VALID,351,VALID,0,
2014-10-30, 02:43:05,VALID,916.663,VALID,0,VALID,97.4654,VALID,0,VALID,20.4439,VALID,351,VALID,0,
2014-10-30, 02:44:05,VALID,916.618,VALID,0,VALID,97.4577,VALID,0,VALID,20.4244,VALID,351,VALID,0,
2014-10-30, 02:45:05,VALID,916.661,VALID,0,VALID,97.4577,VALID,0,VALID,20.4244,VALID,351,VALID,0,
2014-10-30, 02:46:05,VALID,916.639,VALID,0,VALID,97.4577,VALID,0,VALID,20.4439,VALID,351,VALID,0,
2014-10-30, 02:47:05,VALID,916.659,VALID,0,VALID,97.4577,VALID,0,VALID,20.4439,VALID,351,VALID,0,
2014-10-30, 02:48:05,VALID,916.631,VALID,0,VALID,97.4577,VALID,0,VALID,20.4259,VALID,351,VALID,0,
2014-10-30, 02:49:05,VALID,916.635,VALID,0,VALID,97.4806,VALID,0,VALID,20.4049,VALID,351,VALID,0,
2014-10-30, 02:50:05,VALID,916.636,VALID,0,VALID,97.4654,VALID,0,VALID,20.3854,VALID,351,VALID,0,
2014-10-30, 02:51:05,VALID,916.625,VALID,0,VALID,97.473,VALID,0,VALID,20.3464,VALID,351,VALID,0,
2014-10-30, 02:52:05,VALID,916.646,VALID,0,VALID,97.4577,VALID,0,VALID,20.3464,VALID,351,VALID,0,
2014-10-30, 02:53:05,VALID,916.652,VALID,0,VALID,97.473,VALID,0,VALID,20.3253,INVALID,360,VALID,0,
2014-10-30, 02:54:05,VALID,916.643,VALID,0,VALID,97.473,VALID,0,VALID,20.3464,INVALID,360,VALID,0,
2014-10-30, 02:55:05,VALID,916.657,VALID,0,VALID,97.473,VALID,0,VALID,20.3269,INVALID,360,VALID,0,
2014-10-30, 02:56:05,VALID,916.652,VALID,0,VALID,97.4577,VALID,0.107441,VALID,20.3269,VALID,351,VALID,0,
2014-10-30, 02:57:05,VALID,916.615,VALID,0,VALID,97.4882,VALID,0,VALID,20.3074,VALID,1,VALID,0,
2014-10-30, 02:58:05,VALID,916.644,VALID,0,VALID,97.473,VALID,0,VALID,20.2879,VALID,7,VALID,0,
2014-10-30, 02:59:05,VALID,916.68,VALID,0,VALID,97.4806,VALID,0,VALID,20.2684,VALID,7,VALID,0,
2014-10-30, 03:00:05,VALID,916.611,VALID,0,VALID,97.4806,VALID,0,VALID,20.2684,VALID,7,VALID,0,
2014-10-30, 03:01:04,VALID,916.628,VALID,0,VALID,97.4882,VALID,0,VALID,20.2879,VALID,7,VALID,0,
2014-10-30, 03:02:04,VALID,916.609,VALID,0,VALID,97.5035,VALID,0,VALID,20.2894,VALID,7,VALID,0,
2014-10-30, 03:03:04,VALID,916.617,VALID,0,VALID,97.4959,VALID,0,VALID,20.2684,VALID,7,VALID,0,
2014-10-30, 03:04:04,VALID,916.592,VALID,0,VALID,97.4882,VALID,0,VALID,20.2684,VALID,7,VALID,0,
2014-10-30, 03:05:04,VALID,916.592,VALID,0,VALID,97.5035,VALID,0,VALID,20.2684,VALID,7,VALID,0,
2014-10-30, 03:06:04,VALID,916.607,VALID,0,VALID,97.5187,VALID,0,VALID,20.2684,VALID,7,VALID,0,
2014-10-30, 03:07:04,VALID,916.586,VALID,0,VALID,97.4806,VALID,0,VALID,20.2684,VALID,7,VALID,0,
2014-10-30, 03:08:04,VALID,916.598,VALID,0,VALID,97.4882,VALID,0,VALID,20.2684,VALID,7,VALID,0,
2014-10-30, 03:09:04,VALID,916.566,VALID,0,VALID,97.5187,VALID,0,VALID,20.2489,VALID,7,VALID,0,
2014-10-30, 03:10:04,VALID,916.566,VALID,0,VALID,97.4959,VALID,0,VALID,20.2489,VALID,7,VALID,0,
2014-10-30, 03:11:04,VALID,916.565,VALID,0,VALID,97.4959,VALID,0,VALID,20.2894,VALID,7,VALID,0,
2014-10-30, 03:12:04,VALID,916.57,VALID,0,VALID,97.5111,VALID,0,VALID,20.2684,VALID,7,VALID,0,
2014-10-30, 03:13:04,VALID,916.548,VALID,0,VALID,97.5035,VALID,0,VALID,20.2684,VALID,7,VALID,0,
2014-10-30, 03:14:04,VALID,916.486,VALID,0.2,VALID,97.5187,VALID,0,VALID,20.2684,VALID,7,VALID,0,
2014-10-30, 03:15:04,VALID,916.517,VALID,0,VALID,97.5187,VALID,0,VALID,20.2489,VALID,7,VALID,0,
2014-10-30, 03:16:04,VALID,916.516,VALID,0,VALID,97.534,VALID,0,VALID,20.2489,VALID,7,VALID,0,
2014-10-30, 03:17:04,VALID,916.533,VALID,0,VALID,97.5187,VALID,0,VALID,20.2684,VALID,7,VALID,0,
2014-10-30, 03:18:04,VALID,916.507,VALID,0,VALID,97.5264,VALID,0,VALID,20.2684,VALID,7,VALID,0,
2014-10-30, 03:19:04,VALID,916.524,VALID,0,VALID,97.5416,VALID,0,VALID,20.2684,VALID,7,VALID,0,
2014-10-30, 03:20:04,VALID,916.482,VALID,0,VALID,97.5492,VALID,0,VALID,20.2684,VALID,7,VALID,0,
2014-10-30, 03:21:04,VALID,916.481,VALID,0,VALID,97.5569,VALID,0,VALID,20.2489,VALID,7,VALID,0,
2014-10-30, 03:22:04,VALID,916.48,VALID,0.2,VALID,97.534,VALID,0,VALID,20.2489,VALID,7,VALID,0,
2014-10-30, 03:23:04,VALID,916.491,VALID,0,VALID,97.5645,VALID,0,VALID,20.2684,VALID,7,VALID,0,
2014-10-30, 03:24:04,VALID,916.488,VALID,0,VALID,97.5492,VALID,0,VALID,20.2894,VALID,7,VALID,0,
2014-10-30, 03:25:04,VALID,916.49,VALID,0,VALID,97.534,VALID,0,VALID,20.2489,VALID,7,VALID,0,
2014-10-30, 03:26:04,VALID,916.471,VALID,0,VALID,97.5645,VALID,0.107441,VALID,20.2684,VALID,7,VALID,0,
2014-10-30, 03:27:04,VALID,916.471,VALID,0,VALID,97.5492,VALID,0,VALID,20.2879,VALID,7,VALID,0,
2014-10-30, 03:28:04,VALID,916.499,VALID,0,VALID,97.5492,VALID,0,VALID,20.2879,VALID,7,VALID,0,
2014-10-30, 03:29:04,VALID,916.482,VALID,0,VALID,97.5797,VALID,0,VALID,20.2879,VALID,7,VALID,0,
2014-10-30, 03:30:04,VALID,916.507,VALID,0,VALID,97.5569,VALID,0,VALID,20.3074,VALID,7,VALID,0,
2014-10-30, 03:31:04,VALID,916.494,VALID,0.2,VALID,97.5492,VALID,0,VALID,20.2879,VALID,7,VALID,0,
2014-10-30, 03:32:04,VALID,916.489,VALID,0,VALID,97.5492,VALID,0,VALID,20.2879,VALID,7,VALID,0,
2014-10-30, 03:33:04,VALID,916.467,VALID,0,VALID,97.5797,VALID,0,VALID,20.2879,VALID,7,VALID,0,
2014-10-30, 03:34:04,VALID,916.497,VALID,0,VALID,97.595,VALID,0,VALID,20.2879,VALID,7,VALID,0,
2014-10-30, 03:35:04,VALID,916.505,VALID,0,VALID,97.5873,VALID,0,VALID,20.2684,VALID,7,VALID,0,
2014-10-30, 03:36:04,VALID,916.468,VALID,0,VALID,97.595,VALID,0,VALID,20.2293,VALID,7,VALID,0,
2014-10-30, 03:37:04,VALID,916.497,VALID,0,VALID,97.5873,VALID,0,VALID,20.2098,VALID,7,VALID,0,
2014-10-30, 03:38:04,VALID,916.489,VALID,0,VALID,97.595,VALID,0,VALID,20.1903,VALID,7,VALID,0,
2014-10-30, 03:39:04,VALID,916.463,VALID,0,VALID,97.595,VALID,0,VALID,20.1708,VALID,7,VALID,0,
2014-10-30, 03:40:04,VALID,916.495,VALID,0,VALID,97.6026,VALID,0,VALID,20.1513,VALID,7,VALID,0,
2014-10-30, 03:41:04,VALID,916.488,VALID,0,VALID,97.595,VALID,0,VALID,20.1513,VALID,7,VALID,0,
2014-10-30, 03:42:04,VALID,916.478,VALID,0,VALID,97.6026,VALID,0,VALID,20.1318,VALID,7,VALID,0,
2014-10-30, 03:43:04,VALID,916.482,VALID,0,VALID,97.6026,VALID,0,VALID,20.1513,VALID,7,VALID,0,
2014-10-30, 03:44:04,VALID,916.509,VALID,0,VALID,97.6255,VALID,0,VALID,20.1513,VALID,7,VALID,0,
2014-10-30, 03:45:04,VALID,916.468,VALID,0.2,VALID,97.6178,VALID,0,VALID,20.1513,VALID,7,VALID,0,
2014-10-30, 03:46:04,VALID,916.506,VALID,0,VALID,97.6026,VALID,0,VALID,20.1708,VALID,7,VALID,0,
2014-10-30, 03:47:04,VALID,916.48,VALID,0,VALID,97.595,VALID,0,VALID,20.1708,VALID,7,VALID,0,
2014-10-30, 03:48:04,VALID,916.499,VALID,0,VALID,97.6026,VALID,0,VALID,20.1708,VALID,7,VALID,0,
2014-10-30, 03:49:04,VALID,916.508,VALID,0,VALID,97.6026,VALID,0,VALID,20.1513,VALID,7,VALID,0,
2014-10-30, 03:50:04,VALID,916.497,VALID,0,VALID,97.6331,VALID,0,VALID,20.1318,VALID,7,VALID,0,
2014-10-30, 03:51:04,VALID,916.497,VALID,0,VALID,97.6407,VALID,0,VALID,20.1318,VALID,7,VALID,0,
2014-10-30, 03:52:04,VALID,916.489,VALID,0,VALID,97.6178,VALID,0,VALID,20.1513,VALID,7,VALID,0,
2014-10-30, 03:53:04,VALID,916.499,VALID,0,VALID,97.6102,VALID,0,VALID,20.1724,VALID,7,VALID,0,
2014-10-30, 03:54:04,VALID,916.477,VALID,0.2,VALID,97.6102,VALID,0,VALID,20.1318,VALID,7,VALID,0,
2014-10-30, 03:55:04,VALID,916.504,VALID,0,VALID,97.6178,VALID,0,VALID,20.1318,VALID,7,VALID,0,
2014-10-30, 03:56:04,VALID,916.487,VALID,0,VALID,97.6255,VALID,0.107441,VALID,20.1303,VALID,7,VALID,0,
2014-10-30, 03:57:04,VALID,916.479,VALID,0,VALID,97.6178,VALID,0,VALID,20.1513,VALID,7,VALID,0,
2014-10-30, 03:58:04,VALID,916.484,VALID,0,VALID,97.6331,VALID,0.107441,VALID,20.1513,VALID,7,VALID,0,
2014-10-30, 03:59:04,VALID,916.478,VALID,0,VALID,97.6712,VALID,0,VALID,20.1513,VALID,7,VALID,0,
2014-10-30, 04:00:04,VALID,916.451,VALID,0,VALID,97.656,VALID,0,VALID,20.1513,VALID,7,VALID,0,